Regional Weather Roundup
Issued by NWS Upton, NY

Current Version | Previous Version | Text Only | Print | Product List | Glossary On
Versions: 1 2 3 4 5 6 7 8 9 10 11 12 13 14 15 16 17 18 19 20 21 22 23 24 25 26 27 28 29 30 31 32 33 34 35 36 37 38 39 40 41 42 43 44 45 46 47 48
000 ASUS41 KOKX 310204 RWROKX REGIONAL WEATHER ROUNDUP NATIONAL WEATHER SERVICE NEW YORK NY 1000 PM EDT THU JUL 30 2015 NOTE: "FAIR" INDICATES FEW OR NO CLOUDS BELOW 12,000 FEET WITH NO SIGNIFICANT WEATHER AND/OR OBSTRUCTIONS TO VISIBILITY. NYZ071-072-176-178-NJZ106-104-310300- NEW YORK CITY METRO AREA CITY SKY/WX TMP DP RH WIND PRES REMARKS CENTRAL PARK MOCLDY 77 72 84 W5 29.87R LAGUARDIA APRT MOCLDY 79 71 76 SW7 29.83R KENNEDY INTL MOCLDY 76 72 87 SW8 29.85R NEWARK/LIBERTY MOCLDY 78 72 81 SW10 29.84R BRNX BOT. GARD N/A 77 72 83 S6 29.84F TETERBORO MOCLDY 78 72 81 SW6 29.82R $$ NYZ177-179-078>081-310300- LONG ISLAND NEW YORK CITY SKY/WX TMP DP RH WIND PRES REMARKS FARMINGDALE CLOUDY 76 73 91 SW9 29.84R ISLIP CLOUDY 75 73 93 SW12 29.82R SHIRLEY MOCLDY 76 73 91 SW6 29.83S WESTHAMPTON LGT RAIN 75 74 96 S5 29.83F MONTAUK POINT N/A 76 72 87 SW8G18 29.84R $$ NYZ052-065-067-310300- HUDSON VALLEY CITY SKY/WX TMP DP RH WIND PRES REMARKS WHITE PLAINS MOCLDY 75 73 93 SE3 29.84R FOG NEWBURGH NOT AVBL MONTGOMERY PTCLDY 72 71 97 CALM 29.84S FOG POUGHKEEPSIE MOCLDY 75 72 90 CALM 29.82R ALBANY PTCLDY 72 61 68 SW5 29.83R $$ NJZ001-105-106-008-010-013-015-019>022-104-310300- NEW JERSEY CITY SKY/WX TMP DP RH WIND PRES REMARKS NEWARK/LIBERTY MOCLDY 78 72 81 SW10 29.84R TETERBORO MOCLDY 78 72 81 SW6 29.82R CALDWELL PTCLDY 77 72 84 CALM 29.84R MORRISTOWN NOT AVBL SOMERVILLE PTCLDY 74 72 93 CALM 29.83R FOG SUSSEX FOG 74 73 97 CALM 29.86R VSB 1 ANDOVER N/A 73 72 96 CALM 29.87R TRENTON PTCLDY 75 73 93 SW5 29.85R FOG MILLVILLE MOCLDY 76 73 91 W5 29.89R ATLANTIC CITY CLOUDY 78 74 87 W6 29.88R WRIGHTSTOWN MOCLDY 74 74 100 SW8 29.84S TOMS RIVER N/A 75 73 94 SW6 29.87R BELMAR CLOUDY 75 70 83 SW6 29.86R $$ PAZ047>061-062-071-310300- EASTERN PENNSYLVANIA CITY SKY/WX TMP DP RH WIND PRES REMARKS PHILADELPHIA MOCLDY 79 74 84 SW9 29.87R ALLENTOWN PTCLDY 75 71 87 SW3 29.86R SCRANTON PTCLDY 72 64 76 E3 29.89R $$ CTZ002-004>006-009-010-012-RIZ004-006-007-MAZ004-011-015-310300- SOUTHERN NEW ENGLAND IN CT CITY SKY/WX TMP DP RH WIND PRES REMARKS BRADLEY INTL PTCLDY 74 71 91 SW3 29.82R HARTFORD CLOUDY 75 73 93 S7 29.82R DANBURY CLOUDY 75 73 93 CALM 29.85R WTRBRY/OXFORD CLOUDY 75 68 78 CALM 29.87R BRIDGEPORT CLOUDY 77 74 90 SW7 29.83R MERIDEN CLOUDY 75 72 90 SE3 29.83R NEW HAVEN CLOUDY 75 73 93 VRB3 29.83R CHESTER CLOUDY 73 73 100 W5 29.85R GROTON CLOUDY 73 71 93 CALM 29.82R WILLIMANTIC CLOUDY 75 72 90 S6 29.83R IN RI CITY SKY/WX TMP DP RH WIND PRES REMARKS PROVIDENCE DRIZZLE 74 72 93 S8 29.83R BLOCK ISLAND N/A 73 72 94 SW15G21 29.84S WESTERLY CLOUDY 74 72 93 SW6 29.83S IN MA CITY SKY/WX TMP DP RH WIND PRES REMARKS BOSTON LGT RAIN 75 72 90 SW14 29.79R WORCESTER RAIN 72 69 90 W10 29.85R WESTFIELD CLEAR 73 71 93 CALM 29.82R FOG PROVINCETOWN CLOUDY 72 64 78 SW15G21 29.81F NANTUCKET CLOUDY 72 69 90 SW8 29.86S $$ ANZ330-335-338-340-345-350-353-355-310300- COASTAL MARINE OBSERVATIONS STATION/POSITION TIME SKY/WX TEMP WIND PRES VSBY WAVE AIR SEA DIR/SP/G HT/PER (UTC) (F) (DEG/KT/KT) (MB) (MI) (FT/S) NY HARB ENTRANCE 0050 76 76 210/ 14/ 16 1009.6 4/ 5 4S FIRE IS NOT AVBL 20S FIRE ISLAND 0050 76 75 240/ 10/ 12 1010.1 5/ 6 GREAT SOUTH BAY 0100 77 81 260/ 16/ 23 N/A 23SW MTP 0150 76 74 230/ 16/ 19 1009.6 4/ 6 HUDSON CANYON NOT AVBL KINGS POINT 0100 75 71 190/ 7/ 9 1009.2 EXECUTION ROCKS 0100 74 190/ 6/ 8 N/A CENTRAL LI SOUND NOT AVBL EASTERN LI SOUND 0100 72 69 230/ 4/ 6 N/A ROBBINS REEF 0100 77 200/ 7/ 8 1009.0 $$ >>>>>>>>>>>>>>>>>>>>>>>>>>>> KEY <<<<<<<<<<<<<<<<<<<<<<<<<<< > < > SKY/WX - SKY CONDITION/PRESENT WEATHER < > TMP - TEMPERATURE IN FAHRENHEIT < > DP - DEWPOINT IN FAHRENHEIT < > RH - RELATIVE HUMIDITY IN PERCENT < > WIND - DIRECTION AND SPEED IN MPH < > PRES - MEAN SEA LEVEL PRESSURE IN INCHES OF HG < > WCI - WIND CHILL INDEX < > VSB - VISIBILITY IN MILES < > HX - HEAT INDEX < > TC - TEMPERATURE IN CELSIUS < > VRB - VARIABLE WIND DIRECTION < > < >>>>>>>>>>>>>>>>>>>>>>>>>>>> KEY <<<<<<<<<<<<<<<<<<<<<<<<<<<

USA.gov is the U.S. government's official web portal to all federal, state and local government web resources and services.